Location: Black Forest
(43.4794°N, 75.0081°W)
Time: 02:59:36
(UTC-05:00)

ISS - Visible Passes

Search period start: 20 January 2017 00:00
Search period end: 30 January 2017 00:00
Orbit: 399 x 410 km, 51.6° (Epoch: 20 January)

Date Brightness Start Highest point End Pass type
(mag) Time Alt. Az. Time Alt. Az. Time Alt. Az.
20 Jan -0.7 05:09:16 15° SSE 05:09:16 15° SSE 05:09:59 10° SSE visible
27 Jan -1.5 18:51:42 10° SSW 18:53:25 22° S 18:53:25 22° S visible
28 Jan -1.3 18:00:27 10° S 18:02:23 15° SE 18:03:39 13° ESE visible
28 Jan -0.7 19:35:14 10° WSW 19:36:20 19° WSW 19:36:20 19° WSW visible
29 Jan -3.4 18:42:58 10° SW 18:46:12 62° SE 18:46:29 59° ESE visible
